Regional Weather Roundup
Issued by NWS

Home | Current Version | Previous Version | Graphics & Text | Print | Product List | Glossary On
Versions: 1 2 3 4 5 6 7 8 9 10 11 12 13 14 15 16 17 18 19 20 21 22 23 24 25 26 27 28 29 30 31 32 33 34 35 36 37 38 39 40 41 42 43 44 45 46 47 48 49 50
000
ASUS45 KBOI 011510
RWRID
WEATHER ROUNDUP FOR IDAHO
NATIONAL WEATHER SERVICE BOISE ID
800 AM MST SUN MAR 01 2015

NOTE: "FAIR" INDICATES FEW OR NO CLOUDS BELOW 12000 FEET
WITH NO SIGNIFICANT WEATHER AND/OR OBSTRUCTIONS TO VISIBILITY

IDZ012-014-011600-
SOUTHWEST IDAHO


CITY           SKY/WX    TMP DP  RH WIND       PRES   REMARKS
BOISE          FLURRIES  31  24  75 S8        30.18R WCI  23
CALDWELL       PTCLDY    27  18  69 CALM      30.21R
MOUNTAIN HOME  CLOUDY    28  20  72 SE13      30.20R WCI  17
$$

IDZ016-017-011600-
SOUTHCENTRAL IDAHO


CITY           SKY/WX    TMP DP  RH WIND       PRES   REMARKS
BURLEY         CLEAR     22   7  52 E10       30.16R WCI  11
JEROME         CLEAR     23   7  50 E16       30.16R WCI  10
TWIN FALLS     CLEAR     26   6  42 E18       30.15R WCI  13
$$

IDZ019>023-011600-
SOUTHEAST IDAHO


CITY           SKY/WX    TMP DP  RH WIND       PRES   REMARKS
IDAHO FALLS    CLEAR     16   2  54 N13       30.17R WCI   2
POCATELLO      CLEAR     17   5  59 NE7       30.17R WCI   8
REXBURG        CLEAR     12   0  58 NE8       30.17R WCI   0
$$

IDZ006-010-011-018-031-032-011600-
CENTRAL IDAHO MOUNTAINS


CITY           SKY/WX    TMP DP  RH WIND       PRES   REMARKS
MCCALL         CLEAR     15   7  70 CALM      30.11R
HAILEY         PTCLDY    19  10  68 NW10      30.13R WCI   8
STANLEY          N/A      0  -6  76 S3        30.14R
SALMON         PTCLDY    16  10  79 CALM      30.26R
CHALLIS        CLEAR     15   8  73 CALM      30.19R
$$

IDZ002-004-006-007-026-011600-
NORTHERN IDAHO


CITY           SKY/WX    TMP DP  RH WIND       PRES   REMARKS
LEWISTON       CLEAR     26  18  71 CALM      30.27R
LOWELL           N/A     24  18  77 NW6       30.34S WCI  17
COEUR D`ALENE  CLEAR     21  10  63 E7        30.23S WCI  13
MULLAN PASS    CLEAR     13   0  56 S9        30.07S WCI   1
$$



USA.gov is the U.S. government's official web portal to all federal, state and local government web resources and services.